Probability
0 0 0 0 0 0 0 0 0 0 0 0 0 1 1 1 1 1 0 0 2 3 2 0 0 0 1 2 3 3 3 2 1 0 0 0 0 0 0 0 0 0 0 0 0 0 0 0 0
0 0 0 0 0 0 0 0 0 0 0 1 1 2 2 2 2 2 1 0 1 3 2 1 0 0 1 3 4 3 3 3 1 1 0 0 0 0 0 0 0 0 0 0 0 0 0 0 0
0 0 0 0 0 0 0 0 0 0 0 1 2 3 3 3 3 3 2 1 2 4 3 2 1 0 1 2 4 4 3 3 3 2 2 1 1 1 0 0 0 0 0 0 0 0 0 0 0
0 0 0 0 0 0 0 0 0 0 0 1 2 3 3 3 3 3 3 2 3 5 4 2 1 0 0 1 3 4 4 3 3 3 4 4 4 3 2 1 0 0 0 0 0 0 0 0 1
0 0 0 0 0 0 0 0 0 0 0 0 1 2 2 2 2 3 3 3 4 4 3 1 0 0 0 1 2 4 4 4 3 3 4 6 6 5 5 3 1 0 0 0 0 0 1 1 2
0 0 0 0 0 0 0 0 0 0 0 0 0 1 1 0 1 1 3 3 3 3 3 1 0 0 0 1 2 3 4 3 3 3 4 5 6 7 6 5 3 2 0 0 0 0 1 2 2
0 0 0 0 0 0 0 0 0 0 0 0 0 0 0 0 0 1 2 3 3 3 3 2 1 0 0 0 1 2 3 2 2 2 2 3 5 6 5 5 6 4 2 0 0 0 1 1 1
0 0 0 0 0 0 0 0 0 0 0 0 0 0 0 0 0 0 1 2 3 3 3 2 1 0 0 0 0 1 1 1 1 1 1 2 2 3 3 3 5 5 3 1 0 0 0 0 0
0 0 0 0 0 0 0 0 0 0 0 0 0 0 0 0 0 0 0 1 2 3 3 2 1 0 0 0 0 0 0 0 0 0 0 1 2 2 1 1 3 3 2 1 0 0 0 0 0
0 0 0 0 0 0 0 0 0 0 0 0 0 0 0 0 0 0 0 0 1 2 2 2 1 0 0 0 0 0 0 0 0 0 1 2 3 3 2 1 1 1 0 0 0 0 0 0 0
0 0 0 0 0 0 0 0 0 0 0 0 0 0 0 0 0 0 0 0 0 0 1 1 1 0 0 0 0 0 0 0 0 1 1 3 3 3 3 2 1 0 0 0 1 1 0 0 0
0 0 0 0 0 0 0 0 0 0 0 0 0 0 0 0 0 0 0 0 0 0 0 0 0 0 0 0 0 0 0 0 0 1 2 3 3 3 3 2 1 1 1 1 2 1 0 0 0
0 0 0 0 0 0 0 0 0 0 0 0 0 0 0 0 0 0 0 0 0 0 0 0 0 0 0 0 0 0 0 0 0 1 3 3 3 3 3 2 1 0 1 1 2 1 0 0 0
0 0 0 0 0 0 0 0 0 0 0 0 0 0 0 0 0 0 0 0 0 0 0 0 0 0 0 0 0 0 0 0 0 1 2 3 3 3 3 2 1 0 0 1 1 0 0 0 0
0 0 0 0 0 0 0 0 0 0 0 0 0 0 0 0 0 0 0 0 0 0 0 0 0 0 0 0 0 0 0 0 0 0 1 1 2 2 2 1 0 0 0 0 0 0 0 0 0
0 0 0 0 0 0 0 0 0 0 0 0 0 0 0 0 0 0 0 0 0 0 0 0 0 0 0 0 0 0 0 0 0 0 0 0 1 1 1 0 0 0 0 0 0 0 0 0 0
0 0 0 0 0 0 0 0 0 0 0 0 0 0 0 0 0 0 0 0 0 0 0 0 0 0 0 0 0 0 0 0 0 0 0 0 0 0 0 0 0 0 0 0 0 0 0 0 0
0 0 0 0 0 0 0 0 0 0 0 0 0 0 0 0 0 0 0 0 0 0 0 0 0 0 0 0 0 0 0 0 0 0 0 0 0 0 0 0 0 0 0 0 0 0 0 0 0
0 0 0 0 0 0 0 0 0 0 0 0 0 0 0 0 0 0 0 0 0 0 0 0 0 0 0 0 0 0 0 0 0 0 0 0 0 0 0 0 0 0 0 0 0 0 0 0 0
0 0 0 0 0 0 0 0 0 0 0 0 0 0 0 0 0 0 0 0 0 0 0 0 0 0 0 0 0 0 0 0 0 0 0 0 0 0 0 0 0 0 0 0 0 0 0 0 0
0 0 0 0 0 0 0 0 0 0 0 0 0 0 0 0 0 0 0 0 0 0 0 0 0 0 0 0 0 0 0 0 0 0 0 0 0 0 0 0 0 0 0 0 0 0 0 0 0
0 0 0 0 0 0 0 0 0 0 0 0 0 0 0 0 0 0 0 0 0 1 1 1 1 0 0 0 0 0 0 0 0 0 0 0 0 0 0 0 0 0 0 0 0 0 0 0 0
0 0 0 0 0 0 0 0 0 0 0 0 0 0 0 0 0 0 0 0 0 1 2 2 2 1 0 0 0 0 0 0 0 0 0 0 0 0 0 0 0 0 0 0 0 0 0 0 0
0 0 0 0 0 0 0 0 0 0 0 0 0 0 0 0 0 0 0 0 0 0 1 2 2 1 0 0 0 0 0 0 0 0 0 0 0 0 0 0 0 0 0 0 0 0 0 0 0
0 0 0 0 0 0 0 0 0 0 0 0 0 0 0 0 0 0 0 0 0 0 0 1 1 1 0 0 0 0 0 0 0 0 0 0 0 0 0 0 0 0 0 0 0 0 0 0 0
0 0 0 0 0 0 0 0 0 0 0 0 0 0 0 0 0 0 0 0 0 0 0 0 0 0 0 0 0 0 0 0 0 0 0 0 0 0 0 0 0 0 0 0 0 0 0 0 0
0 0 0 0 0 0 0 0 0 0 0 0 0 0 0 0 0 0 0 0 0 0 0 0 0 0 0 0 0 0 0 0 0 0 0 0 0 0 0 0 0 0 0 0 0 0 0 0 0
0 0 0 0 0 0 0 0 0 0 0 0 0 0 0 0 0 0 0 0 0 0 0 0 0 0 0 0 0 0 0 0 0 0 0 0 0 0 0 0 0 0 0 0 0 0 0 0 0
0 0 0 0 0 0 0 0 0 0 0 0 0 0 0 0 0 0 0 0 0 0 0 0 0 0 0 0 0 0 0 0 0 0 0 0 0 0 0 0 0 0 0 0 0 0 0 0 0
0 0 0 0 0 0 0 0 0 0 0 0 0 0 0 0 0 0 0 0 0 0 0 0 0 0 0 0 0 0 0 0 0 0 0 0 0 0 0 0 0 0 0 0 0 0 0 0 0
Wind_Speed
7 3 2 3 3 3 3 2 1 2 2 2 2 1 0 1 2 3 4 2 2 1 1 2 2 5 6 7 7 7 7 7 7 7 7 8 8 8 8 8 8 8 8 9 10 10 10 10 10
4 2 3 3 4 5 4 3 3 1 2 2 1 1 1 3 3 3 2 1 1 1 1 2 3 5 6 7 7 7 6 6 7 7 7 7 7 7 7 8 7 7 8 8 9 10 10 10 10
2 2 1 2 4 5 3 3 2 2 2 0 1 1 2 3 3 2 2 1 2 2 2 3 4 5 6 6 6 6 6 6 6 7 7 7 7 7 7 7 7 7 7 8 8 9 9 9 9
2 2 1 3 5 3 1 2 2 3 2 1 1 2 3 3 2 2 1 2 3 3 2 4 4 4 5 6 6 6 6 6 6 6 6 6 7 7 7 7 7 7 7 7 7 8 8 8 8
1 2 3 4 5 2 1 0 3 2 2 1 1 1 3 3 2 2 2 3 3 3 3 4 5 5 5 5 5 5 5 5 5 5 5 6 6 6 6 6 7 7 6 6 7 7 7 7 8
2 2 4 6 5 3 2 1 3 2 1 1 1 0 3 3 2 2 2 2 3 3 3 3 4 5 5 5 5 5 5 5 4 4 5 5 5 6 6 6 6 6 6 6 6 6 6 6 6
2 3 4 4 5 4 2 2 3 3 3 1 1 1 3 2 1 1 1 2 2 3 3 3 3 3 4 5 5 5 4 4 4 4 5 5 5 5 6 6 6 6 6 6 6 6 6 6 6
1 2 3 4 5 4 2 1 1 2 1 1 1 2 1 1 1 1 2 2 2 2 2 2 2 3 3 3 5 4 5 4 4 4 4 4 4 4 5 4 5 5 5 6 6 6 5 5 5
2 3 4 3 4 3 3 2 1 1 1 1 0 2 3 2 3 3 3 2 2 2 2 2 2 2 2 2 3 3 4 4 3 3 3 1 1 2 2 4 5 5 5 5 5 5 5 4 4
0 3 2 0 1 2 3 2 1 3 3 2 1 0 1 3 4 4 4 4 3 2 1 1 1 2 1 1 1 1 1 1 1 1 0 0 1 1 1 4 4 4 4 4 4 4 3 2 1
2 1 2 1 1 1 2 2 1 3 3 3 3 2 2 4 4 4 4 4 3 3 2 1 1 1 1 1 1 0 0 1 1 1 1 0 0 1 1 1 1 1 1 1 2 1 1 1 2
4 3 2 1 1 0 2 2 2 3 3 2 2 2 3 4 5 5 4 4 3 3 2 1 1 1 1 1 1 1 1 1 0 0 0 0 0 1 1 0 0 0 0 0 1 1 1 1 1
3 3 2 3 2 1 1 1 2 3 3 2 1 2 4 4 5 4 5 5 4 4 3 2 2 2 2 1 1 1 1 1 1 1 1 1 1 1 1 1 1 0 0 0 0 0 0 1 1
4 4 2 2 1 1 0 1 2 4 2 1 1 2 3 4 4 4 5 6 5 4 3 3 3 3 3 2 2 2 2 2 2 2 2 2 1 1 1 1 1 1 1 1 1 0 1 1 1
4 3 3 2 1 1 2 4 5 3 2 2 2 2 3 4 4 5 5 5 5 4 3 3 3 3 4 4 3 2 2 2 2 2 2 2 2 2 2 2 1 1 1 1 1 0 1 1 1
2 2 1 2 2 2 3 5 2 1 2 4 3 3 3 3 4 4 4 4 4 4 4 4 3 3 4 4 3 3 3 3 2 2 2 2 2 3 2 2 2 1 1 1 1 1 1 1 1
1 1 1 0 2 2 3 6 2 2 3 4 4 3 3 3 3 3 3 4 3 4 4 4 4 4 4 4 3 3 2 2 2 2 2 2 2 2 2 2 1 2 1 1 1 1 1 2 2
2 2 1 1 2 1 4 7 6 3 4 5 4 4 3 3 4 3 3 3 3 3 4 4 4 4 3 2 2 2 2 2 2 2 2 2 2 2 2 2 2 2 2 2 2 2 2 2 2
1 1 1 2 2 3 5 8 8 5 5 6 5 5 4 4 3 2 2 2 3 3 3 4 4 3 2 2 2 2 2 2 2 2 2 2 2 2 3 2 3 3 3 2 2 2 2 2 2
2 1 1 1 2 3 5 8 7 5 5 5 5 5 5 4 3 2 2 2 3 3 4 4 4 3 4 3 3 2 2 2 2 1 2 2 3 3 3 3 3 3 3 3 3 2 2 2 2
1 1 1 2 3 1 5 5 2 1 3 4 5 5 4 4 4 3 2 3 3 3 4 3 4 4 4 4 2 1 1 1 2 2 2 2 3 3 3 4 3 3 4 4 4 4 4 3 3
0 0 1 2 2 1 3 4 3 2 3 4 4 4 5 4 4 4 4 4 4 4 3 3 4 4 4 4 4 4 3 3 3 2 2 2 2 3 3 3 3 3 3 4 4 4 4 4 3
1 1 0 1 1 2 1 4 4 1 4 3 4 4 4 4 4 4 4 4 4 3 3 3 3 4 4 4 5 5 4 3 2 2 2 2 2 2 2 2 2 3 3 3 3 3 4 4 4
1 2 2 1 2 2 1 4 5 2 3 3 3 3 3 4 4 4 4 3 3 3 3 3 3 4 4 4 5 5 5 4 3 3 3 2 2 2 2 2 2 3 3 3 3 3 4 4 4
1 1 1 1 1 2 0 4 7 4 3 4 5 4 4 4 4 4 4 4 3 3 3 3 4 4 4 4 4 4 5 4 4 4 3 3 2 2 2 2 3 3 3 3 3 3 3 4 4
1 1 1 2 2 2 2 6 6 2 3 4 5 5 5 4 4 4 4 4 4 4 4 4 5 4 4 4 4 4 4 3 3 3 3 3 2 2 3 3 3 3 3 3 3 3 3 3 4
2 1 2 2 1 3 5 6 8 3 4 4 4 4 4 4 4 4 4 4 4 4 4 5 5 4 4 3 3 3 3 3 3 3 3 2 2 2 2 2 3 3 3 3 3 3 3 3 4
1 2 2 2 2 4 5 6 5 4 4 3 4 4 5 4 4 4 4 4 4 4 3 4 4 4 3 3 3 2 2 2 2 2 3 3 3 2 2 2 2 2 2 2 3 3 3 4 4
3 3 2 2 2 3 4 5 3 4 4 4 5 5 5 5 5 4 4 4 4 3 3 3 4 4 3 3 3 2 2 2 2 2 3 3 2 2 2 2 2 2 2 2 3 3 3 4 4
3 3 5 3 3 4 4 8 1 4 4 5 6 6 6 6 6 5 5 4 3 4 3 3 3 3 3 3 3 2 2 2 2 2 3 2 2 2 2 2 2 2 3 3 3 3 4 4 4
Wind_Direction
324 316 247 226 219 216 221 187 169 147 141 67 41 0 29 20 347 44 59 72 71 119 153 180 128 114 108 102 97 93 89 86 86 84 82 81 80 79 79 77 75 73 72 72 72 71 70 70 69
320 286 221 228 235 224 203 185 177 86 55 98 99 121 129 88 44 55 77 43 99 122 137 162 111 115 110 105 101 96 92 88 87 85 83 82 81 77 77 78 76 73 72 73 74 74 71 70 68
292 290 233 204 226 238 195 156 151 85 80 139 121 49 33 64 67 64 32 142 145 117 115 110 89 115 115 112 107 101 95 90 87 86 84 81 81 78 76 75 71 69 70 71 75 76 73 70 69
244 178 175 223 215 230 256 139 143 144 134 54 178 126 97 48 31 30 72 141 133 113 103 97 78 107 117 116 113 106 98 93 88 88 85 82 80 78 75 71 67 64 65 70 74 75 75 73 70
221 198 189 209 220 201 225 185 180 185 165 103 247 140 118 80 38 76 117 136 127 113 100 100 74 81 95 104 111 110 104 97 90 89 84 81 79 76 75 71 67 64 63 65 71 74 75 75 72
169 197 213 216 203 187 188 212 198 208 194 195 254 199 109 93 60 74 117 138 125 115 106 104 83 78 81 84 85 97 101 96 89 86 83 79 74 71 70 68 66 65 63 62 63 69 72 73 73
200 194 219 213 197 200 182 191 213 216 214 209 262 223 130 124 57 90 130 140 123 115 111 110 116 106 89 81 80 81 80 83 84 82 81 75 71 68 62 61 62 63 64 61 60 64 64 68 70
346 165 182 200 207 202 147 169 265 255 235 73 243 241 133 104 122 154 126 135 124 115 112 114 110 115 116 104 81 77 72 66 70 69 68 74 77 74 62 66 66 66 66 63 62 61 60 62 63
247 207 211 207 212 182 160 186 134 320 186 158 250 335 21 114 154 153 143 148 144 120 110 110 105 105 109 109 94 91 83 73 78 75 68 86 123 116 90 66 66 67 65 65 66 65 60 59 64
293 215 213 329 260 187 180 211 183 195 198 208 218 253 100 153 170 177 183 185 182 163 141 127 122 114 110 101 118 123 111 105 98 86 99 206 110 76 74 73 66 65 62 69 66 63 61 41 59
66 131 126 102 33 192 187 191 194 216 229 241 249 225 178 181 192 200 202 200 206 196 174 168 155 150 149 143 152 142 133 124 111 84 19 242 136 131 118 106 104 99 88 81 77 74 48 24 19
101 80 88 86 49 204 200 185 197 239 272 344 280 216 197 203 208 214 215 211 212 211 200 202 189 191 188 180 195 210 197 181 183 144 307 262 193 198 168 161 151 197 42 46 26 30 34 22 18
111 108 72 66 63 69 116 210 263 265 279 300 272 208 211 214 220 226 227 220 218 212 211 218 217 208 209 199 215 223 223 227 219 224 206 227 244 229 216 211 218 245 266 233 8 25 16 6 2
104 109 88 42 44 48 260 299 281 280 274 261 231 229 226 224 228 233 229 218 216 219 220 220 223 217 219 220 218 223 227 230 231 226 215 212 225 234 229 225 226 241 254 264 248 276 280 301 324
121 114 99 44 351 349 274 276 251 273 244 258 260 250 252 244 229 232 235 226 219 221 225 227 225 223 224 227 227 227 224 234 236 232 224 222 224 226 237 231 230 237 248 244 224 254 274 279 292
140 161 157 54 1 332 261 265 253 203 230 260 265 265 259 256 243 239 240 237 228 227 227 229 226 228 230 230 234 235 231 233 239 242 235 232 229 226 232 238 240 241 232 233 227 241 266 279 288
130 200 247 83 39 340 249 266 280 200 244 261 261 264 257 257 255 249 245 246 238 231 229 225 228 227 233 236 236 239 239 237 241 243 248 241 228 226 218 227 249 249 238 231 233 246 265 269 289
178 205 242 274 14 308 246 264 283 267 247 255 260 261 257 256 253 249 247 249 246 240 233 227 232 233 234 233 233 238 239 241 245 249 256 255 235 220 220 210 223 241 244 238 233 243 255 258 280
121 182 266 308 356 297 269 278 285 280 256 256 255 256 254 257 264 251 245 236 239 241 232 227 232 233 227 223 232 241 249 252 250 255 262 260 250 231 224 216 215 222 230 238 237 240 243 248 260
123 147 309 317 354 309 301 288 281 266 258 260 258 251 252 264 265 262 256 236 234 240 236 231 229 229 229 233 236 248 262 270 275 265 257 257 250 238 229 226 222 220 223 222 224 225 252 251 247
83 248 303 320 322 267 302 281 241 226 248 254 250 251 254 258 263 268 267 253 242 242 239 234 228 227 230 227 217 216 234 255 261 259 260 261 261 251 239 235 229 228 231 226 225 224 235 246 245
109 358 276 297 303 325 334 295 277 286 273 248 245 243 251 255 259 266 266 264 253 253 241 231 229 229 226 217 213 219 230 243 259 265 259 266 259 258 250 246 239 236 240 239 234 230 238 240 242
81 82 204 269 268 281 294 266 277 285 267 254 246 250 261 264 264 264 262 266 265 257 249 238 230 231 224 219 220 223 233 242 246 255 260 271 269 263 259 251 243 242 245 248 246 237 234 236 242
144 168 146 164 222 260 287 261 274 242 255 280 275 265 277 287 282 277 274 272 269 259 250 241 233 236 226 221 222 224 228 234 241 253 262 268 271 268 264 257 249 248 248 246 246 242 239 239 243
210 227 268 271 272 259 104 256 260 275 260 271 283 288 291 289 281 274 271 264 267 263 253 241 233 235 225 223 224 227 229 231 237 248 253 260 263 269 274 263 255 254 252 248 245 241 243 245 244
144 293 260 279 290 305 218 250 265 290 280 271 274 281 290 287 279 272 268 259 261 263 253 238 232 233 225 224 230 231 233 234 238 248 252 253 258 263 267 262 257 258 255 247 242 242 245 247 248
147 133 10 108 75 278 264 274 282 236 252 255 264 272 276 278 280 273 272 265 262 258 250 239 232 231 227 227 230 234 235 238 245 253 252 252 259 268 265 262 258 259 252 241 241 243 246 247 248
351 144 161 179 234 272 278 262 257 246 252 259 264 268 275 281 280 276 269 265 265 261 255 241 231 230 229 227 228 235 241 248 259 262 257 254 261 264 263 267 266 267 259 245 241 249 252 249 253
156 164 165 148 256 248 276 267 222 235 249 267 274 275 280 282 283 281 277 271 271 267 253 239 235 232 226 222 224 230 238 244 250 256 260 258 255 255 256 262 267 261 256 251 249 252 259 255 257
238 211 188 206 217 232 261 270 200 235 256 267 279 285 281 282 282 280 278 274 268 262 252 242 235 230 227 221 220 225 230 237 247 261 268 266 267 266 261 260 263 262 257 255 251 251 257 259 262